TIMESTAMP,CO2_1_1_1,H2O_1_1_1,TAU_1_1_1,TAU_SSITC_TEST_1_1_1,H_1_1_1,H_SSITC_TEST_1_1_1,LE_1_1_1,LE_SSITC_TEST_1_1_1,FC_1_1_1,FC_SSITC_TEST_1_1_1,WD_0_0_1,WS_0_0_1,WS_MAX_0_0_1,U_SIGMA_0_0_1,V_SIGMA_0_0_1,W_SIGMA_0_0_1,USTAR_0_0_1,MO_LENGTH_0_0_1,ZL_0_0_1,FETCH_MAX_0_0_1,FETCH_70_0_0_1,FETCH_80_0_0_1,FETCH_90_0_0_1,PA_0_0_1,RH_0_0_1,TA_0_0_1,VPD_0_0_1,T_SONIC_0_0_1,T_SONIC_SIGMA_0_0_1
[yyyymmddHHMMSS],[mmolCO2 mol-1],[mmolH2O mol-1],[kg m-1 s-2],[#],[W m-2],[#],[W m-2],[#],[umolCO2 m-2 s-1],[#],[Decimal degrees],[m s-1],[m s-1],[m s-1],[m s-1],[m s-1],[m s-1],[m],[#],[m],[m],[m],[m],[kPa],[%],[deg C],[hPa],[deg C],[deg C]
20240615003000,413.41045424067551,11.192774332548421,0.15682932419825646,0,2.5922150627040628,0,76.736410420734543,0,-1.0313835366535391,0,13.039837593272807,1.5993413934866887,4.6002435178625527,0.76911943080174550,0.53469019866693079,0.40646275391599923,0.37493586863904033,-1706.0780850942147,-1.1136653220037559E-002,117.38264391073189,214.61291034294501,256.83684077838006,321.52924728629011,94.665176903925229,42.172333333333334,21.219333333333338,14.532907728265730,21.748342722395705,0.27088566507112816
20240615010000,413.46884551953229,11.742725918447968,0.37972489969504764,0,2.9287644881109012,2,34.663658548620923,1,-1.7559502850185000E-002,2,36.714304664450623,2.4626981102093812,7.2160572611684239,1.2249478924185728,0.83576312943220998,0.55268324923065193,0.58285218783222914,-5673.2459864794573,-3.3490527372303284E-003,130.65336601048364,238.87602282102210,285.87358952924416,357.87981109641919,94.667788832899305,45.968666666666664,20.598000000000013,13.069874416898934,21.135752445644755,0.21770036567198039
20240615013000,413.71944533547708,12.117071150107380,0.10582691276118504,0,-32.713044073104747,1,27.593510907863234,1,0.95599496759650349,1,50.251291844080583,2.5540971948224103,5.3304255295799248,0.63957352381227939,0.49322598154094627,0.34445306723087732,0.30728907344916373,74.439121966377144,0.25524212938167068,114.28482012492839,208.94910046227400,250.05870690844472,313.04382800375600,94.674223867404507,49.837333333333333,19.799666666666667,11.549726766728039,20.456374298095682,0.28409558579377270
20240615020000,418.68917064930940,12.757110314432436,2.9141885220106151E-002,0,-18.068115927423278,0,8.9329321596775575,1,2.5142712565288723,1,42.405189283183176,1.7835481543500924,3.6307026023479754,0.47816995696434395,0.39219559169543072,0.23138692748321268,0.16090151647338577,19.353137149336977,0.98175297644965664,178.50103633120750,1613.0000000000000,2940.0000000000000,7839.0000000000000,94.695232354166677,56.846666666666664,18.517666666666685,9.1728913263835086,19.405493409050905,0.33550490559779766
20240615023000,421.46761470676063,12.824832058222496,1.5446183167170080E-002,0,-24.144520077030972,0,16.182771627287075,0,4.1189771903215870,0,29.723767821450849,1.7638078243514739,3.4192585516284653,0.41675055954509560,0.31807735650714930,0.20439868433018044,0.11691086853581313,5.5579523408639071,3.4185251752350778,295.35626526498254,2282.0000000000000,3980.0000000000000,9821.0000000000000,94.753037239149307,60.813666666666670,17.538666666666643,7.8323979477972605,18.511691652086029,0.48961511586591089
20240615030000,424.19455254627223,12.905726802907411,5.1235571968030608E-002,0,-43.456551160554838,0,24.038192945230879,0,6.2691566862454966,0,49.961274742617405,2.2249757907807988,4.7834533407790492,0.61624543752914029,0.85872301366962422,0.28857383900343853,0.21258808209824903,18.571288044870034,1.0230846645689926,159.91372862995328,1415.0000000000000,2563.0000000000000,6765.0000000000000,94.787709344184023,64.509333333333331,16.711999999999989,6.7319763015309562,17.745494590759336,0.40870719383638782
20240615033000,424.09256049335869,12.776313128994882,0.10498877656181499,0,-38.284970297442499,0,5.5423849899441526,2,2.7872821873581142,0,88.547338459470851,2.5118378689216607,5.2318841705865804,0.67256086990727060,0.58875174301081623,0.39296297355028614,0.30421986699314024,61.777806084812568,0.30755381591109876,102.02900522921604,186.54156204123177,223.24260638362441,279.47325226092914,94.796397615017355,64.447333333333333,16.569999999999993,6.6831481621841844,17.463921469794400,0.32567406654716691
20240615040000,426.43203471277201,13.176295852199576,0.11951209963007015,0,-37.164361645695408,0,-3.7414369469463189,0,1.8821843407876124,0,102.95992756275307,2.7105666746010262,5.8606994984388603,0.77929642361891183,0.58987137985361504,0.42596249702166172,0.32432788803778850,77.121049869461601,0.24636594071476225,100.68047217410549,184.07601352393110,220.29197451829342,275.77941130024919,94.803481763020827,68.501999999999995,16.097333333333324,5.7453148261472595,17.040521314832915,0.24146163721844349
20240615043000,424.32471909127810,13.016390869911580,0.30962909471542671,0,-57.555776433895367,0,4.9229266167315027,0,3.8357302466806087,0,109.60269579660167,3.3294174025991232,7.1156913794384744,1.1275221309855208,0.83237973820208344,0.61053498617504653,0.52207857122875634,207.69013282884583,9.1482439445775693E-002,110.47783360904359,201.98871493516211,241.72890313976038,302.61590213583651,94.791889277343756,67.528666666666666,16.128333333333330,5.9345827129998634,17.064112186855766,0.22906690835225418
20240615050000,423.62081246314983,12.727934994970830,0.54901045498145784,0,-71.624256975488606,0,4.9236906806512710,2,5.2987016643042928,0,114.15171485491308,3.2435179547945969,8.4290585821082171,1.3064970193926451,0.97983204726184103,0.73042905721287610,0.69496826793365474,393.62826929257324,4.8268890936483566E-002,120.32737619953255,219.99682014106614,263.28000573698176,329.59532524069158,94.784954097439226,66.775000000000006,15.951999999999998,6.0043351386870611,16.810545094807992,0.23275944506046400
20240615053000,424.82469744895798,12.429545621199635,0.50948972759049693,0,-53.660353785690489,0,7.9434714404962445,0,5.3971152793488093,0,121.23175345155272,2.9950942475986722,7.4319915649270269,1.2725114671310689,0.93166584248551598,0.72639644272422310,0.66885877091422841,468.42787955484062,4.0561206600376140E-002,117.21507614228943,214.30654301923354,256.47019733920371,321.07025320793457,94.805617627604164,67.117000000000004,15.504999999999995,5.7749030840681668,16.327434811062290,0.16593321353802756
20240615060000,424.64146726680315,12.330151492262532,0.44702876279719694,0,-47.791737371984077,0,7.9146941011035583,0,4.2222278496505936,0,124.85388612867794,3.4478660410735928,8.2400825313860206,1.2289495369778352,0.99573619776546018,0.69819346816201977,0.62629830210379811,431.75919680146507,4.4006011083851285E-002,114.78873293169364,209.87041378778761,251.16128365237785,314.42412325064419,94.795549219401039,67.534333333333336,15.281666666666638,5.6204688751970480,16.103334659152551,0.18842025098976123
20240615063000,425.65654666355169,12.283375911255019,0.37703019408801841,0,-46.764804151385079,0,5.3934154580356939,0,3.9986629263000451,0,126.22457085203911,3.0520955269427632,7.2309368515468897,1.0884509042901425,0.89521801020823089,0.66512706119187959,0.57478032976206561,341.05313637333376,5.5709794086753840E-002,111.41219313512799,203.69702214753099,243.77331056521592,305.17525763429643,94.793020835069441,69.031666666666666,14.881333333333316,5.2249249854831055,15.728632351345482,0.18284703206077557
20240615070000,427.67026815486560,12.332578842500871,0.28662950006230903,0,-55.603083211330762,0,4.8593186161372870,0,6.5159841684210562,0,133.78640847605070,2.7979764706141359,7.2950747798470852,0.95342678013920001,0.82131802422660483,0.60395504842101599,0.50074533655761411,189.68590801608096,0.10016558530214717,107.78162767295794,197.05919057321887,235.82952149660386,295.23057636469684,94.807635801432298,71.291333333333327,14.446666666666658,4.7096646258878243,15.346117072211428,0.18483838667918120
20240615073000,429.07730452829713,12.277448369573351,0.47938114327788572,0,-82.924431661140090,0,20.961189103498743,0,12.131928283091726,0,137.01062464397577,3.1826805625158192,7.4842283725042504,1.2219242339096579,1.0205997046303164,0.73685203676550548,0.64734788423374101,274.78380205472155,6.9145269327834186E-002,112.89139911624856,206.40148244957021,247.00985881795773,309.22703198394197,94.802500791015632,71.988000000000000,14.226333333333343,4.5303149886226377,15.131375414530453,0.20406710944738363
20240615080000,429.34865032317418,11.902109340849009,0.48586661679501819,0,-70.723187330307638,0,11.012595670838056,0,9.0677554558407873,0,145.75305558367623,3.3317725191007876,8.3229752105289645,1.2460127141100994,1.1051998986407319,0.82243377912976001,0.65155064997338463,328.50124562850687,5.7838441262675101E-002,103.92802976799335,190.01358456092905,227.39773057277716,284.67497468077528,94.809348764105906,70.158000000000001,14.145666666666671,4.8011171637684269,15.014855738322012,0.19827526624620861
20240615083000,430.78715551955969,11.807578337639521,0.25215587949335372,0,-54.345717309316491,0,11.433900437852582,0,9.7452763487987966,0,148.59829481722610,2.6788849356570803,6.4838955762128023,1.0031474273541829,0.88048206221048653,0.62994252586669619,0.46906899613423297,159.50191703395507,0.11912082533751142,98.901650803230680,180.82376073199370,216.39985856329756,270.90694397987511,94.802339090494783,71.384666666666661,13.754666666666651,4.4883864354787439,14.634630666097053,0.21675002044366967
20240615090000,431.63518851859192,11.761839048252146,0.28089534776786140,0,-72.970155081129718,0,13.644918492375597,0,14.909991637217150,0,153.21721421936022,2.4755700763802855,6.3875339485797804,0.95399914956525156,0.75351121994483572,0.58619685269333488,0.49474353076412864,139.39177388477287,0.13630646537080590,109.32618998077768,199.88314308479545,239.20907140542576,299.46137181856079,94.810711882161456,72.793000000000006,13.396333333333359,4.1690793129407782,14.279632104661687,0.23352122750973597
20240615093000,432.36622992381302,11.721833661396680,0.31144438503235139,0,-64.522173252232406,0,11.367097184903409,0,14.479638713018327,0,155.76586848726308,2.6928425775822706,6.3356948595812304,1.0023220995558582,0.86049831163216162,0.64584259816352529,0.52068633724548941,183.78902270173123,0.10337940602053719,105.39366233415160,192.69322833139844,230.60457977546051,288.68956934396505,94.829926582465291,73.659000000000006,13.165999999999997,3.9761603260820038,14.040538191901305,0.23986865145990557
20240615100000,432.75220486106275,11.675620288293022,0.27801749034800716,0,-58.570248064018081,0,11.685447396324987,0,12.927204478422208,0,161.07065060085552,2.7575729512907343,7.4675465134166714,1.0557125547248627,0.90506739023535954,0.65645736865227822,0.49179741044465458,170.64498693177865,0.11134226877462225,99.384502449431949,181.70656753888369,217.45635283914029,272.22954944505875,94.865358753689236,73.718000000000004,13.098999999999990,3.9499260243439656,13.964859076605933,0.21150499424808050
20240615103000,432.49532032105816,11.526523145306179,0.52684940417821902,0,-77.419500761355422,0,29.935173339254401,0,20.681848887199187,0,160.52863191775947,2.8403610119244820,7.2521666227192076,1.2277494744233437,0.97947487798643817,0.78474022049514636,0.67704952883736569,336.89787153732249,5.6396913145517237E-002,111.26806158559606,203.43350370658661,243.45794629495441,304.78045899041473,94.891482435114327,72.177999999999997,13.229666666666674,4.2172130305170690,14.055288263569537,0.18887321951460642
20240615110000,430.44693737202982,11.335940033371102,0.39000700888422718,0,-49.207942046128352,0,22.361981750632964,0,8.7831035149272232,0,155.16131420745961,2.7592108328220797,7.5838750895744340,1.1186557960249757,0.96766347889290594,0.72331165493063798,0.58273349612912151,337.99467426010926,5.6213903492982976E-002,105.33447023201489,192.58500629033983,230.47506563260833,288.52743300582142,94.909695358527401,69.703000000000003,13.512000000000000,4.6777041976585112,14.311411044034742,0.17304194104986168
20240615113000,428.52363667365364,11.321384390043869,0.35619789784706246,0,-49.027197004416635,0,23.088290835670687,0,7.2411575340926682,0,156.24873200857061,2.7074913556906357,8.0533737615781966,1.1489738553952471,0.94600732375383467,0.68419701678222999,0.55698763520491745,296.24589698854680,6.4135909368339919E-002,106.21513420120827,194.19514089939238,232.40198552552698,290.93970805512294,94.915147476889786,69.141666666666666,13.617333333333306,4.7971595625941363,14.409782344217490,0.17152082670297406
20240615120000,426.20039790646433,11.483556027416759,0.35301256101974876,0,-20.179050806448565,0,41.260169435840432,0,1.1320172990773274,1,158.22507101003600,2.7380749143322007,6.8415193978973781,1.1307060564304936,0.94083327241910686,0.72560341644690007,0.55501933798984637,712.18841289478212,2.6678333508364783E-002,101.05130739359156,184.75401857697875,221.10337340188465,276.79518641841128,94.915771030381933,67.757999999999996,14.147666666666680,5.1879125647026649,14.931683064778667,0.25336177470755733
20240615123000,423.21013895029569,11.452371806584761,0.38254842025710489,0,-3.5052853789127654,2,63.723591492493824,0,-3.4754781844242935,0,157.04055531893397,2.8820405556910385,7.3795687996251695,1.2506614223096952,0.97282593106746629,0.73509806828709578,0.57853863912072945,4643.2484185950198,4.0919628430626000E-003,103.38191446941812,189.01511162059242,226.20281347674145,283.17908027055938,94.907422091796874,64.407333333333327,14.889000000000010,6.0081021023513088,15.610040885077581,0.17635449621425955
20240615130000,420.66832278935561,11.376142211035591,0.47674652206111034,0,34.141903899259191,0,88.855485391196098,0,-5.5112146004164098,0,156.90422061998478,3.2309968744433353,8.3803966248917163,1.4507460312320146,1.1098303554836355,0.79459852992047875,0.64670556293506842,-665.82970578853781,-2.8535825053792731E-002,106.19448703196736,194.15739128894310,232.35680888320422,290.88315225979022,94.901840723090288,60.952333333333335,15.642333333333340,6.9181644212168383,16.292794669257376,0.21823495465873430
20240615133000,417.89687568635338,11.592813705665895,0.61980932058339999,0,91.500864065184658,0,98.715182547308814,0,-10.098332288394921,0,153.34778852056982,3.0390245797102882,8.5483687403603543,1.5077082150000942,1.1034342019916015,0.83402586891690478,0.73863749379554133,-370.18764291400618,-5.1325322072983570E-002,113.62041257491707,207.73435155893361,248.60496272234525,311.22391279032007,94.900985337239590,58.426666666666669,16.600999999999999,7.8303251348453324,17.249471524556611,0.38408045657752427
20240615140000,415.52279943970052,11.541885802533681,0.52330954200487423,0,92.230962431221982,0,112.63314474383171,0,-9.2473525920100137,0,157.30904687540902,3.6401777281109635,10.390675278290635,1.5866023157827789,1.3048868380490164,0.96474307621546462,0.67993269159159575,-286.44807294341217,-6.6329648528490714E-002,94.645136463242707,173.04149497287514,207.08647406804144,259.24769175822274,94.890526981987847,54.518666666666668,17.622999999999990,9.1391135400076049,18.220745985243070,0.30654077696920312
20240615143000,412.50420150851835,11.792190311091597,0.58701984693768439,0,101.16620165456190,0,122.09664459370023,0,-13.779798205606580,0,154.89772602210599,3.0257013665415746,9.0245044569473798,1.5014089951360021,1.3296057643090107,0.94867645089178421,0.72119437833644706,-311.63767690127787,-6.0968237823242774E-002,100.55467574380275,183.84601752862400,220.01672805370765,275.43483538852149,94.883587578125002,52.936999999999998,18.431333333333328,9.9499829784123914,19.009925047132754,0.33258653846394248
20240615150000,411.24524396113242,11.668734484362426,0.55425292866238873,0,36.245901461241232,0,129.52077702219205,0,-14.618818823591647,0,158.77741021067308,2.7987842146077635,9.4559165525874551,1.5509557540430090,1.2588154571576275,0.80785734015879263,0.70111144934363967,-798.87283544259833,-2.3783509911778959E-002,111.79356535124447,204.39429219102175,244.60776472202036,306.21989521868323,94.839071681423604,51.852333333333334,18.586333333333357,10.278611996377265,19.152303194681849,0.13485568968139580
20240615153000,409.65516225413501,11.987017444105314,0.38962209055444535,0,-1.2092423157054077,1,105.56548713481754,0,-8.6550507642816932,0,152.28022897508743,2.5210805244449475,6.7413326906658417,1.1117426427723560,0.96663143326996470,0.71663683622584928,0.58787912658281860,14116.522595360217,1.3459405368178188E-003,106.86759348805711,195.38804456696866,233.82958654376787,292.72689512466104,94.832464184461799,53.299666666666667,18.575333333333333,9.9627708125468875,19.195342059665279,0.11093276837218724
20240615160000,408.04822448587504,11.756910201107793,0.31149059921541816,0,-2.8444266043911814,2,160.56028653910047,0,-10.168083870057298,0,153.45873000653231,2.8590974999761731,9.4542330597365787,1.2200954273727904,1.0670519420798927,0.74190911287481398,0.52616444463450207,4302.3430410244910,4.4161982944706437E-003,95.119932479406074,173.90957351884438,208.12534237721238,260.54823160470659,94.823099791015636,50.415666666666667,19.153999999999996,10.967377514460523,19.730967549642003,0.23293470915427641
20240615163000,409.59625082925817,10.769706005500538,0.65525907404482375,0,7.1668616635853644,0,165.46883453697265,0,-12.066118719372508,0,152.62530308625122,3.3824250033528527,9.5449586667507553,1.5782664262315977,1.3126142605140918,0.98383872873228895,0.76395598830250588,-5224.5381470588827,-3.6366850935323188E-003,102.27522409972556,186.99172866400428,223.78134085692338,280.14768389294125,94.793070173394085,44.365000000000002,19.794666666666672,12.805735380710816,20.234061122470450,0.15042504835596415
20240615170000,409.25932411091020,11.101985010478984,0.29375461217659404,0,-25.114136710117201,0,94.385122917388259,0,-6.0799611732310295,0,154.33539835381001,2.5780966536239212,7.2638656905988617,1.0955989474559205,0.87315063228578438,0.63355483661693068,0.51143577954850383,447.24811399772881,4.2482012568300032E-002,105.50193311538270,192.89118185068347,230.84147958001043,288.98613978770811,94.762425187283000,46.338000000000001,19.577999999999975,12.186608301765604,20.118285370720741,0.17569378723315135
20240615173000,407.55608747673926,11.301423338391974,0.33996537930784443,0,-23.402158906488374,0,118.68751690409354,0,-10.283915433464569,0,153.84737531211502,2.3756668170990012,6.9522977990148576,1.0736858680089054,0.87461620362187931,0.66104042396627427,0.55075705452656787,599.25587563401859,3.1705988664521331E-002,108.20330845681059,197.83015753428964,236.75217204129621,296.38562536095509,94.724337862196180,45.828333333333333,20.036999999999978,12.657540773159132,20.558905115763309,0.11787350965685436
20240615180000,408.46099081994510,11.401624003512536,0.50193706977302999,0,-28.743954377399518,0,120.41181285404930,0,-8.4177568563882588,0,150.28903172433772,3.0086897503094754,8.2780386674985476,1.3144806049365780,1.1416938039289399,0.80732515000228455,0.66958331223434031,876.49300072105609,2.1677298032465122E-002,107.81018998063422,197.11141158113190,235.89201670564424,295.30881295046413,94.688829246280633,45.651000000000003,20.236333333333334,12.856513300208666,20.763408871537479,0.12236109943369548
20240615183000,409.77663556002432,10.804031358772717,0.76862541987134814,0,-13.241001037253033,2,169.98255570341084,0,-10.189057301330735,0,156.75289456619797,3.3901327301247957,9.9113488592740744,1.6366695708067578,1.3708470493483085,0.98084913494272929,0.82930396840800968,3613.2593848992760,5.2584101986715374E-003,109.48235331419927,200.16865946403078,239.55076158946969,299.88912738255158,94.638900006510411,42.127666666666670,20.656999999999982,14.049976136081305,21.094278505961142,0.15407659672149726
20240615190000,410.82239842888237,10.434742273725940,1.0415916793450768,0,-12.766143640629581,2,193.36642482349879,0,-11.474780106372853,0,148.80934456703940,3.9430164918558557,11.805306028151259,1.9846423566941938,1.5672221168400011,1.0997331089566029,0.96622438469628857,5924.7187262907592,3.2069032941071242E-003,112.89831352567735,206.41412419524380,247.02498775878215,309.24597162258874,94.589213593750003,39.698333333333331,21.048666666666691,14.996740019120464,21.418825203789652,0.14547982967173428
20240615193000,410.36059917108128,10.693131833510693,1.3043198912914851,0,117.80877135348777,0,298.77396651627720,0,-18.589095383781082,0,153.29573121891397,4.3840068839509474,12.435930688146444,2.0681916504689331,1.7110075951565848,1.2688733529748191,1.0828690889217965,-903.52983116636733,-2.1028636072228945E-002,110.30140477054088,201.66614674928718,241.34287140633231,302.13263621377649,94.550206909288207,38.868333333333332,21.786333333333346,15.905751821070092,22.125799961513849,0.39415277820576661
20240615200000,411.47610871435592,10.268664529814227,0.92462897809014077,0,108.79462524034115,0,174.01794338758597,0,-10.885227137597722,0,153.95684448100312,4.3890849591508232,14.113523692147984,1.9304975959982476,1.6885642968551446,1.1902555084541833,0.91201707417087685,-584.29844058195886,-3.2517629143552183E-002,101.19175194112427,185.01079600235957,221.41067039819598,277.17988579260492,94.510673878472232,37.064666666666668,21.894333333333350,16.483359971290788,22.108355133056591,0.42593738025787697
20240615203000,410.22178410689747,10.713285033760759,1.0379812776270270,0,150.53670412140627,0,203.50221865840214,0,-12.508804759531493,0,148.07669790977133,3.7217274103406028,12.303271055879831,2.0351784456836124,1.8522468839227915,1.1123115877391163,0.96766111139265998,-504.30283386800022,-3.7675774800371625E-002,112.00885580009262,204.78791179488309,245.07882685599282,306.80960911215044,94.477518574652777,37.099333333333334,22.569666666666649,17.165511933463183,22.771021570841469,0.36798948857657876
20240615210000,410.84207580028396,10.640632858832589,1.0266977890189173,0,88.707871725028411,0,171.01272553171498,0,-11.179503003422244,0,144.95185670609263,4.1468975807412036,11.113343838518510,1.9102363848781441,1.6992121227857293,1.1776138410466539,0.96213256237295597,-840.86449626402407,-2.2595792882702668E-002,106.52229364633232,194.75672632855964,233.07405985332022,291.78106536227909,94.425199115446134,37.532333333333334,22.257666666666694,16.727135182201145,22.495780982123449,0.26068178661856323
20240615213000,408.53423007878439,11.992952003176697,1.0424467681419223,0,61.633793979431289,0,187.65307440281603,0,-15.485202093305265,0,148.98485503792264,3.2674693750798034,10.437441135850840,1.9041491019367827,1.5160790541203681,1.0244770976438244,0.96956118394442059,-1238.7471252907696,-1.5338077975793609E-002,119.81557403211499,219.06108254809760,262.16016682891444,328.19341981271026,94.423977643349275,42.581666666666671,22.149333333333345,15.274000216797793,22.594284895926478,0.19590934214829531
20240615220000,408.53870126497526,12.543620461597078,1.1196547286740715,0,-3.5580584722291180,2,168.32815483432930,0,-5.8528223755498994,0,154.02839983398115,3.6636641350832755,10.971496773006594,1.8235291030089198,1.5958825186367760,1.1568801474108525,1.0040947947781402,23833.508042989753,7.9719695337038504E-004,111.80055966861035,204.40708003388968,244.62306850387264,306.23905373754940,94.413807487630208,45.974333333333334,21.627000000000010,13.920652443987382,22.192021914164229,0.22099195875507655
20240615223000,409.35240831047935,12.744630136475966,0.77427708027565767,0,-22.120334099748288,0,106.43302336148358,0,-1.0458017503957822,0,163.95181556278516,3.7618548832172962,11.935711847504939,1.7673177489369156,1.4563945180237463,1.0444660333556854,0.83400490690612283,2197.0074404863403,8.6481272889062533E-003,104.58618648435350,191.21690494675394,228.83779774229473,286.47776789242442,94.423874501736108,48.721666666666664,20.941333333333318,12.668853013515218,21.580361137390128,0.14017726131247688